Location: Presov
(49.0000°N, 21.2500°E)
Time: 00:47:55
(UTC+02:00)

Transit 2A Rocket - Pass Details

Date: 23 April 2021
Orbit: 594 x 908 km, 66.7° (Epoch: 05 May)

Event Time Altitude Azimuth Distance (km) Brightness Sun altitude
Rises 14:04:57 0° 174° (S) 2,945 8.5 49.1°
Reaches altitude 10° 14:07:47 10° 157° (SSE) 1,997 7.6 48.8°
Maximum altitude 14:10:58 19° 111° (ESE) 1,445 6.6 48.5°
Drops below altitude 10° 14:14:05 10° 65° (ENE) 1,945 6.9 48.2°
Sets 14:16:47 0° 48° (NE) 2,842 7.6 47.9°
